This demonstration page uses our WeatherBlox Daily Observations layout. Learn more.

Hourly Observations for September 2, 2015

Temp ( °F °C ) Dew Point ( °F °C ) Humidity (%) Winds ( mph kmh ) Pressure ( in mb ) Visibility ( mi km ) Precip ( " mm )
12:15 am 00:15 Clear 72 22.1 61 16 68 68 SSE 7 11 29.83 1010 10 16.0934 0 0
12:35 am 00:35 Clear 72 22.1 60 15.7 67 67 SSE 7 11 29.83 1010 10 16.0934 0 0
12:55 am 00:55 Clear 72 22.2 60 15.3 65 65 SSE 7 11 29.83 1010 10 16.0934 0 0
1:15 am 01:15 Clear 71 21.7 60 15.3 67 67 S 6 9 29.83 1010 10 16.0934 0 0
1:35 am 01:35 Clear 70 21.3 60 15.5 70 70 S 8 13 29.83 1010 10 16.0934 0 0
1:55 am 01:55 Clear 71 21.7 60 15.3 67 67 S 8 13 29.83 1010 10 16.0934 0 0
2:15 am 02:15 Clear 71 21.4 60 15.5 69 69 S 6 9 29.83 1010 10 16.0934 0 0
2:35 am 02:35 Clear 70 21 60 15.3 70 70 S 5 7 29.83 1010 10 16.0934 0 0
2:55 am 02:55 Clear 69 20.6 60 15.4 72 72 S 5 7 29.83 1010 10 16.0934 0 0
3:15 am 03:15 Clear 70 20.9 59 15.1 70 70 S 7 11 29.83 1010 10 16.0934 0 0
3:35 am 03:35 Clear 69 20.7 59 15 70 70 SSW 7 11 29.83 1010 10 16.0934 0 0
3:55 am 03:55 Clear 70 20.9 58 14.5 67 67 SSW 9 15 29.83 1010 10 16.0934 0 0
4:15 am 04:15 Clear 70 21 58 14.3 66 66 SSW 9 15 29.83 1010 10 16.0934 0 0
4:35 am 04:35 Clear 69 20.5 58 14.3 68 68 SSW 7 11 29.83 1010 10 16.0934 0 0
4:55 am 04:55 Clear 68 20.2 57 14.1 68 68 SW 8 13 29.8 1009 10 16.0934 0 0
5:15 am 05:15 Clear 69 20.3 57 14 67 67 SW 8 13 29.8 1009 10 16.0934 0 0
5:35 am 05:35 Clear 68 20.1 57 13.9 68 68 SSW 7 11 29.8 1009 10 16.0934 0 0
5:55 am 05:55 Clear 65 18.2 57 13.7 75 75 SSE 6 9 29.83 1010 10 16.0934 0 0
6:15 am 06:15 Clear 64 17.7 57 14.1 80 80 Calm 29.85 1011 10 16.0934 0 0
6:35 am 06:35 Clear 65 18.3 57 13.8 75 75 SSW 3 6 29.83 1010 10 16.0934 0 0
6:55 am 06:55 Clear 64 17.9 57 13.7 77 77 SSW 5 7 29.85 1011 10 16.0934 0 0
7:15 am 07:15 Sunny 64 18 57 13.7 76 76 SSW 6 9 29.85 1011 10 16.0934 0 0
7:35 am 07:35 Sunny 63 17.2 56 13.5 79 79 S 3 6 29.85 1011 10 16.0934 0 0
7:55 am 07:55 Sunny 65 18.2 57 14.1 77 77 S 5 7 29.85 1011 10 16.0934 0 0
8:15 am 08:15 Sunny 68 20 57 14.1 69 69 S 8 13 29.83 1010 10 16.0934 0 0
8:35 am 08:35 Sunny 70 20.9 58 14.5 67 67 S 7 11 29.83 1010 10 16.0934 0 0
8:55 am 08:55 Sunny 72 22.2 58 14.6 62 62 SSW 6 9 29.83 1010 10 16.0934 0 0
9:15 am 09:15 Sunny 74 23.2 59 15 60 60 SSW 7 11 29.8 1009 10 16.0934 0 0
9:35 am 09:35 Sunny 76 24.5 58 14.7 54 54 SSW 9 15 29.8 1009 10 16.0934 0 0
9:55 am 09:55 Sunny 77 25.1 59 14.8 53 53 SSW 9 15 29.8 1009 10 16.0934 0 0
10:15 am 10:15 Sunny 79 26.1 59 14.8 50 50 SSW 8 13 29.77 1008 10 16.0934 0 0
10:35 am 10:35 Sunny 80 26.7 59 15.2 49 49 SSW 10 17 29.77 1008 10 16.0934 0 0
10:55 am 10:55 Sunny 82 27.5 59 15.1 47 47 SSW 9 15 29.77 1008 10 16.0934 0 0
11:15 am 11:15 Sunny 83 28.1 60 15.3 46 46 SSW 8 13 29.77 1008 10 16.0934 0 0
11:35 am 11:35 Sunny 84 28.9 60 15.7 45 45 SSW 6 9 29.77 1008 10 16.0934 0 0
11:55 am 11:55 Sunny 85 29.6 60 15.6 43 43 S 5 7 29.74 1007 10 16.0934 0 0
12:15 pm 12:15 Sunny 86 30 61 15.9 42 42 S 6 9 29.74 1007 10 16.0934 0 0
12:35 pm 12:35 Sunny 87 30.6 60 15.8 41 41 S 6 9 29.74 1007 10 16.0934 0 0
12:55 pm 12:55 Sunny 88 31 60 15.3 39 39 S 7 11 29.74 1007 10 16.0934 0 0
1:15 pm 13:15 Sunny 89 31.8 61 16.3 39 39 SE 9 15 29.74 1007 10 16.0934 0 0
1:35 pm 13:35 Sunny 90 32 59 14.8 35 35 SSE 8 13 29.71 1006 10 16.0934 0 0
1:55 pm 13:55 Sunny 91 32.5 59 15 35 35 SSE 12 19 29.71 1006 10 16.0934 0 0
2:15 pm 14:15 Sunny 92 33.1 59 15.1 34 34 S 10 17 29.71 1006 10 16.0934 0 0
2:35 pm 14:35 Sunny 92 33.6 59 15.1 33 33 SSE 10 17 29.68 1005 10 16.0934 0 0
2:55 pm 14:55 Sunny 92 33.5 59 15 33 33 SSE 13 20 29.68 1005 10 16.0934 0 0
3:15 pm 15:15 Sunny 93 34.1 59 15 32 32 SE 10 17 29.68 1005 10 16.0934 0 0
3:35 pm 15:35 Sunny 94 34.3 58 14.2 30 30 SSE 14 22 29.65 1004 10 16.0934 0 0
3:55 pm 15:55 Sunny 93 34.1 58 14.4 30 30 SSE 13 20 29.65 1004 10 16.0934 0 0
4:15 pm 16:15 Sunny 93 34.1 57 13.7 29 29 SSE 10 17 29.65 1004 10 16.0934 0 0
4:35 pm 16:35 Sunny 93 33.9 57 14.1 30 30 SSE 10 17 29.62 1003 10 16.0934 0 0
4:55 pm 16:55 Sunny 93 33.7 58 14.7 32 32 SSE 9 15 29.62 1003 10 16.0934 0 0
5:15 pm 17:15 Sunny 94 34.2 59 15 31 31 SSE 10 17 29.62 1003 10 16.0934 0 0
5:35 pm 17:35 Sunny 94 34.6 58 14.5 30 30 SE 8 13 29.62 1003 10 16.0934 0 0
5:55 pm 17:55 Sunny 94 34.5 58 14.3 30 30 SSE 7 11 29.62 1003 10 16.0934 0 0
6:15 pm 18:15 Sunny 94 34.5 58 14.4 30 30 SSE 6 9 29.62 1003 10 16.0934 0 0
6:35 pm 18:35 Sunny 93 34.1 58 14.4 30 30 SE 8 13 29.62 1003 10 16.0934 0 0
6:55 pm 18:55 Sunny 92 33.4 60 15.3 34 34 SE 6 9 29.62 1003 10 16.0934 0 0
7:15 pm 19:15 Sunny 90 32.2 61 16 38 38 ESE 5 7 29.65 1004 10 16.0934 0 0
7:35 pm 19:35 Sunny 87 30.7 63 17.3 45 45 ESE 5 7 29.65 1004 10 16.0934 0 0
7:55 pm 19:55 Sunny 83 28.2 65 18.2 55 55 E 7 11 29.68 1005 10 16.0934 0 0
8:15 pm 20:15 Clear 80 26.4 65 18.6 62 62 E 7 11 29.68 1005 10 16.0934 0 0
8:35 pm 20:35 Clear 77 25.2 65 18.2 65 65 E 7 11 29.68 1005 10 16.0934 0 0
8:55 pm 20:55 Clear 76 24.6 65 18.1 67 67 E 7 11 29.68 1005 10 16.0934 0 0
9:15 pm 21:15 Clear 76 24.5 64 18 67 67 E 7 11 29.68 1005 10 16.0934 0 0
9:35 pm 21:35 Clear 76 24.2 64 18 68 68 E 9 15 29.74 1007 10 16.0934 0 0
9:55 pm 21:55 Clear 75 24 64 17.6 68 68 ESE 8 13 29.74 1007 10 16.0934 0 0
10:15 pm 22:15 Clear 76 24.2 63 17.1 65 65 ESE 8 13 29.74 1007 10 16.0934 0 0
10:35 pm 22:35 Clear 74 23.6 62 16.9 66 66 ESE 7 11 29.74 1007 10 16.0934 0 0
10:55 pm 22:55 Clear 74 23.1 62 16.6 67 67 ESE 8 13 29.74 1007 10 16.0934 0 0
11:15 pm 23:15 Clear 73 23 62 16.5 67 67 SE 8 13 29.74 1007 10 16.0934 0 0
11:35 pm 23:35 Clear 72 22.2 62 16.5 70 70 SE 6 9 29.74 1007 10 16.0934 0 0
11:55 pm 23:55 Clear 71 21.5 61 16.3 72 72 SE 3 6 29.74 1007 10 16.0934 0 0

Powered by AerisWeather